,,PA_Meas_PMT16A,,PR_Meas_QMR101_102,,RH_Meas_QMH101,,SR_Meas_QMS101,,TA_Meas_QMH101,,GenWind,,GenWind,
time,status,PA,status,PR,status,RH,status,SR,status,TA,status,DirAvg,status,SpdAvg,
2011-10-25, 00:00:04,VALID,916.093,VALID,0,VALID,91.5648,VALID,0,VALID,19.8978,VALID,119,VALID,0.987891,
2011-10-25, 00:01:04,VALID,916.063,VALID,0,VALID,91.2294,VALID,0,VALID,19.9353,VALID,119,VALID,1.38633,
2011-10-25, 00:02:04,VALID,916.098,VALID,0,VALID,91.237,VALID,0.107441,VALID,19.9548,VALID,119,VALID,0.914844,
2011-10-25, 00:03:04,VALID,916.062,VALID,0,VALID,91.1456,VALID,0,VALID,19.9548,VALID,116,VALID,1.14883,
2011-10-25, 00:04:04,VALID,916.055,VALID,0,VALID,91.2752,VALID,0.107441,VALID,19.9353,VALID,113,VALID,1.37383,
2011-10-25, 00:05:04,VALID,916.075,VALID,0,VALID,91.3666,VALID,0.107441,VALID,19.9353,VALID,106,VALID,1.19375,
2011-10-25, 00:06:04,VALID,916.027,VALID,0,VALID,91.5267,VALID,0,VALID,19.9158,VALID,112,VALID,1.1543,
2011-10-25, 00:07:04,VALID,916.052,VALID,0,VALID,91.5039,VALID,0,VALID,19.9158,VALID,102,VALID,1.19531,
2011-10-25, 00:08:04,VALID,916.033,VALID,0,VALID,91.5496,VALID,0.107441,VALID,19.8963,VALID,103,VALID,0.902344,
2011-10-25, 00:09:04,VALID,915.995,VALID,0,VALID,91.4886,VALID,0,VALID,19.8963,VALID,109,VALID,1.12656,
2011-10-25, 00:10:04,VALID,915.985,VALID,0,VALID,91.5953,VALID,0.107441,VALID,19.9158,VALID,112,VALID,0.746094,
2011-10-25, 00:11:04,VALID,915.961,VALID,0,VALID,91.5496,VALID,0.107441,VALID,19.8753,VALID,112,VALID,0.995313,
2011-10-25, 00:12:04,VALID,915.956,VALID,0,VALID,91.7173,VALID,0,VALID,19.8963,VALID,112,VALID,0.772266,
2011-10-25, 00:13:04,VALID,915.942,VALID,0,VALID,91.824,VALID,0.107441,VALID,19.8768,VALID,112,VALID,0.91875,
2011-10-25, 00:14:04,VALID,915.914,VALID,0,VALID,91.9079,VALID,0.107441,VALID,19.8378,VALID,112,VALID,0.849219,
2011-10-25, 00:15:04,VALID,915.89,VALID,0,VALID,92.1442,VALID,0.107441,VALID,19.8183,VALID,112,VALID,0.696094,
2011-10-25, 00:16:04,VALID,915.892,VALID,0,VALID,92.4568,VALID,0,VALID,19.7808,VALID,112,VALID,0.640625,
2011-10-25, 00:17:04,VALID,915.87,VALID,0,VALID,92.7693,VALID,0,VALID,19.7613,VALID,112,VALID,0.848437,
2011-10-25, 00:18:04,VALID,915.82,VALID,0,VALID,93.0819,VALID,0,VALID,19.7028,VALID,113,VALID,1.1082,
2011-10-25, 00:19:04,VALID,915.799,VALID,0,VALID,93.5012,VALID,0,VALID,19.6248,VALID,112,VALID,0.978906,
2011-10-25, 00:20:04,VALID,915.805,VALID,0,VALID,93.8976,VALID,0,VALID,19.5663,VALID,113,VALID,0.951563,
2011-10-25, 00:21:04,VALID,915.835,VALID,0,VALID,94.1873,VALID,0,VALID,19.5078,VALID,113,VALID,1.10664,
2011-10-25, 00:22:04,VALID,915.815,VALID,0,VALID,94.416,VALID,0,VALID,19.5093,VALID,135,VALID,1.23203,
2011-10-25, 00:23:04,VALID,915.803,VALID,0,VALID,94.5304,VALID,0,VALID,19.4688,VALID,162,VALID,1.35508,
2011-10-25, 00:24:04,VALID,915.799,VALID,0,VALID,94.6828,VALID,0,VALID,19.4493,VALID,165,VALID,1.63594,
2011-10-25, 00:25:04,VALID,915.838,VALID,0,VALID,94.7972,VALID,0,VALID,19.4493,VALID,165,VALID,1.02031,
2011-10-25, 00:26:04,VALID,915.846,VALID,0,VALID,94.8963,VALID,0,VALID,19.4298,VALID,168,VALID,1.0625,
2011-10-25, 00:27:04,VALID,915.836,VALID,0,VALID,94.9801,VALID,0,VALID,19.4298,VALID,163,VALID,0.908594,
2011-10-25, 00:28:04,VALID,915.835,VALID,0,VALID,94.9878,VALID,0,VALID,19.4103,VALID,163,VALID,0.936328,
2011-10-25, 00:29:04,VALID,915.798,VALID,0,VALID,94.9649,VALID,0,VALID,19.4298,VALID,167,VALID,1.10156,
2011-10-25, 00:30:04,VALID,915.783,VALID,0,VALID,94.9725,VALID,0,VALID,19.4493,VALID,164,VALID,0.675391,
2011-10-25, 00:31:04,VALID,915.75,VALID,0,VALID,94.9268,VALID,0,VALID,19.4493,VALID,164,VALID,0.875,
2011-10-25, 00:32:04,VALID,915.723,VALID,0,VALID,94.8658,VALID,0,VALID,19.4493,VALID,171,VALID,1.04883,
2011-10-25, 00:33:04,VALID,915.726,VALID,0,VALID,94.8429,VALID,0,VALID,19.4688,VALID,171,VALID,0.397266,
2011-10-25, 00:34:04,VALID,915.721,VALID,0,VALID,94.8048,VALID,0,VALID,19.4688,VALID,171,VALID,0.752734,
2011-10-25, 00:35:04,VALID,915.698,VALID,0,VALID,94.7819,VALID,0,VALID,19.4688,VALID,171,VALID,0.863281,
2011-10-25, 00:36:04,VALID,915.63,VALID,0,VALID,94.7286,VALID,0,VALID,19.4898,VALID,171,VALID,0.909766,
2011-10-25, 00:37:04,VALID,915.619,VALID,0,VALID,94.7591,VALID,0,VALID,19.4883,VALID,171,VALID,0.804297,
2011-10-25, 00:38:04,VALID,915.623,VALID,0,VALID,94.7667,VALID,0,VALID,19.4688,VALID,171,VALID,0.744141,
2011-10-25, 00:39:04,VALID,915.622,VALID,0,VALID,94.7896,VALID,0,VALID,19.4688,VALID,167,VALID,0.938672,
2011-10-25, 00:40:04,VALID,915.624,VALID,0,VALID,94.82,VALID,0,VALID,19.4688,VALID,167,VALID,0.952734,
2011-10-25, 00:41:04,VALID,915.606,VALID,0,VALID,94.8582,VALID,0,VALID,19.4703,VALID,169,VALID,0.754297,
2011-10-25, 00:42:04,VALID,915.59,VALID,0,VALID,94.82,VALID,0,VALID,19.4493,VALID,169,VALID,0.798437,
2011-10-25, 00:43:04,VALID,915.581,VALID,0,VALID,94.8277,VALID,0,VALID,19.4688,VALID,169,VALID,0.916016,
2011-10-25, 00:44:04,VALID,915.586,VALID,0,VALID,94.82,VALID,0,VALID,19.4703,VALID,169,VALID,0.707812,
2011-10-25, 00:45:04,VALID,915.552,VALID,0,VALID,94.8353,VALID,0,VALID,19.4298,VALID,169,VALID,0.348437,
2011-10-25, 00:46:04,VALID,915.527,VALID,0,VALID,94.8734,VALID,0,VALID,19.4103,VALID,169,VALID,0.372656,
2011-10-25, 00:47:04,VALID,915.546,VALID,0,VALID,94.9344,VALID,0,VALID,19.3908,VALID,168,VALID,0.453906,
2011-10-25, 00:48:04,VALID,915.519,VALID,0,VALID,95.0564,VALID,0,VALID,19.3908,VALID,168,VALID,0.285156,
2011-10-25, 00:49:04,VALID,915.498,VALID,0,VALID,95.1783,VALID,0,VALID,19.3713,VALID,168,VALID,0.627734,
2011-10-25, 00:50:04,VALID,915.474,VALID,0,VALID,95.2775,VALID,0,VALID,19.3323,VALID,168,VALID,0.667188,
2011-10-25, 00:51:04,VALID,915.467,VALID,0,VALID,95.3918,VALID,0,VALID,19.3323,VALID,136,VALID,0.969141,
2011-10-25, 00:52:04,VALID,915.435,VALID,0,VALID,95.4985,VALID,0,VALID,19.3323,VALID,121,VALID,0.663672,
2011-10-25, 00:53:04,VALID,915.419,VALID,0,VALID,95.5976,VALID,0,VALID,19.3143,VALID,121,VALID,0.542578,
2011-10-25, 00:54:04,VALID,915.398,VALID,0,VALID,95.712,VALID,0,VALID,19.2738,VALID,121,VALID,0.413672,
2011-10-25, 00:55:04,VALID,915.38,VALID,0,VALID,95.7882,VALID,0,VALID,19.2738,VALID,121,VALID,0.5375,
2011-10-25, 00:56:04,VALID,915.362,VALID,0,VALID,95.8492,VALID,0,VALID,19.2738,VALID,121,VALID,0.524609,
2011-10-25, 00:57:04,VALID,915.322,VALID,0,VALID,95.9026,VALID,0,VALID,19.2738,VALID,121,VALID,0.652734,
2011-10-25, 00:58:04,VALID,915.293,VALID,0,VALID,95.9559,VALID,0,VALID,19.2528,VALID,121,VALID,0.294141,
2011-10-25, 00:59:04,VALID,915.273,VALID,0,VALID,95.9941,VALID,0,VALID,19.2348,VALID,121,VALID,0.509375,
2011-10-25, 01:00:04,VALID,915.235,VALID,0,VALID,96.055,VALID,0,VALID,19.2543,VALID,121,VALID,0.488672,
2011-10-25, 01:01:04,VALID,915.225,VALID,0,VALID,96.0855,VALID,0,VALID,19.2139,VALID,121,VALID,0.394922,
2011-10-25, 01:02:04,VALID,915.2,VALID,0,VALID,96.1008,VALID,0,VALID,19.2334,VALID,121,VALID,0.769531,
2011-10-25, 01:03:04,VALID,915.177,VALID,0,VALID,96.1084,VALID,0,VALID,19.2558,VALID,121,VALID,0.905078,
2011-10-25, 01:04:04,VALID,915.143,VALID,0,VALID,96.1541,VALID,0,VALID,19.2139,VALID,120,VALID,0.60625,
2011-10-25, 01:05:04,VALID,915.128,VALID,0,VALID,96.1999,VALID,0,VALID,19.2348,VALID,154,VALID,0.550781,
2011-10-25, 01:06:04,VALID,915.127,VALID,0,VALID,96.2456,VALID,0,VALID,19.2348,VALID,157,VALID,0.946484,
2011-10-25, 01:07:04,VALID,915.1,VALID,0,VALID,96.2761,VALID,0,VALID,19.2139,VALID,153,VALID,0.652344,
2011-10-25, 01:08:04,VALID,915.074,VALID,0,VALID,96.2914,VALID,0,VALID,19.2334,VALID,163,VALID,1.00508,
2011-10-25, 01:09:04,VALID,915.057,VALID,0,VALID,96.2837,VALID,0,VALID,19.2334,VALID,137,VALID,0.986328,
2011-10-25, 01:10:04,VALID,915.055,VALID,0,VALID,96.3066,VALID,0,VALID,19.2334,VALID,146,VALID,0.620313,
2011-10-25, 01:11:04,VALID,915.045,VALID,0,VALID,96.3219,VALID,0,VALID,19.2528,VALID,145,VALID,0.577734,
2011-10-25, 01:12:04,VALID,915.027,VALID,0,VALID,96.2837,VALID,0,VALID,19.2738,VALID,141,VALID,0.836719,
2011-10-25, 01:13:04,VALID,914.978,VALID,0,VALID,96.2914,VALID,0,VALID,19.2543,VALID,132,VALID,0.75625,
2011-10-25, 01:14:04,VALID,914.966,VALID,0,VALID,96.3142,VALID,0,VALID,19.2543,VALID,127,VALID,0.232422,
2011-10-25, 01:15:04,VALID,914.953,VALID,0,VALID,96.3066,VALID,0,VALID,19.2543,VALID,127,VALID,0.367578,
2011-10-25, 01:16:04,VALID,914.941,VALID,0,VALID,96.3142,VALID,0,VALID,19.2738,VALID,165,VALID,0.165234,
2011-10-25, 01:17:04,VALID,914.913,VALID,0,VALID,96.299,VALID,0,VALID,19.2528,VALID,163,VALID,0.378516,
2011-10-25, 01:18:04,VALID,914.888,VALID,0,VALID,96.299,VALID,0,VALID,19.2543,VALID,163,VALID,0.418359,
2011-10-25, 01:19:04,VALID,914.863,VALID,0,VALID,96.2685,VALID,0,VALID,19.2543,VALID,152,VALID,0.537109,
2011-10-25, 01:20:04,VALID,914.838,VALID,0,VALID,96.2685,VALID,0,VALID,19.2348,VALID,152,VALID,0.304297,
2011-10-25, 01:21:04,VALID,914.838,VALID,0,VALID,96.2533,VALID,0,VALID,19.2543,VALID,152,VALID,0.657422,
2011-10-25, 01:22:04,VALID,914.839,VALID,0,VALID,96.238,VALID,0,VALID,19.2543,VALID,143,VALID,0.980469,
2011-10-25, 01:23:04,VALID,914.787,VALID,0,VALID,96.177,VALID,0,VALID,19.2543,VALID,128,VALID,0.902734,
2011-10-25, 01:24:04,VALID,914.805,VALID,0,VALID,96.1389,VALID,0,VALID,19.2543,VALID,128,VALID,0.523828,
2011-10-25, 01:25:04,VALID,914.77,VALID,0,VALID,96.1084,VALID,0,VALID,19.2334,VALID,146,VALID,0.765625,
2011-10-25, 01:26:04,VALID,914.754,VALID,0,VALID,96.0855,VALID,0,VALID,19.2948,VALID,146,VALID,0.622266,
2011-10-25, 01:27:04,VALID,914.735,VALID,0,VALID,95.9864,VALID,0,VALID,19.2738,VALID,144,VALID,0.587891,
2011-10-25, 01:28:04,VALID,914.725,VALID,0,VALID,95.9331,VALID,0,VALID,19.2738,VALID,144,VALID,0.475781,
2011-10-25, 01:29:04,VALID,914.667,VALID,0,VALID,95.8797,VALID,0,VALID,19.3128,VALID,144,VALID,0.224219,
2011-10-25, 01:30:04,VALID,914.661,VALID,0,VALID,95.8187,VALID,0,VALID,19.2933,VALID,144,VALID,0.337109,
2011-10-25, 01:31:04,VALID,914.649,VALID,0,VALID,95.7425,VALID,0,VALID,19.3128,VALID,144,VALID,0.696094,
2011-10-25, 01:32:04,VALID,914.612,VALID,0,VALID,95.7044,VALID,0,VALID,19.3128,VALID,144,VALID,0.880469,
2011-10-25, 01:33:04,VALID,914.638,VALID,0,VALID,95.6739,VALID,0,VALID,19.3323,VALID,140,VALID,0.417969,
2011-10-25, 01:34:04,VALID,914.596,VALID,0,VALID,95.6586,VALID,0,VALID,19.3323,VALID,140,VALID,0.839063,
2011-10-25, 01:35:04,VALID,914.622,VALID,0,VALID,95.59,VALID,0,VALID,19.3128,VALID,140,VALID,0.379687,
2011-10-25, 01:36:04,VALID,914.564,VALID,0,VALID,95.5824,VALID,0,VALID,19.3128,VALID,140,VALID,0.640234,
2011-10-25, 01:37:04,VALID,914.544,VALID,0,VALID,95.5595,VALID,0,VALID,19.3128,VALID,140,VALID,0.750391,
2011-10-25, 01:38:04,VALID,914.536,VALID,0,VALID,95.5595,VALID,0,VALID,19.3128,VALID,140,VALID,0.344141,
2011-10-25, 01:39:04,VALID,914.561,VALID,0,VALID,95.5824,VALID,0,VALID,19.3128,VALID,139,VALID,0.510156,
2011-10-25, 01:40:04,VALID,914.512,VALID,0,VALID,95.6053,VALID,0,VALID,19.2933,VALID,139,VALID,0.778516,
2011-10-25, 01:41:04,VALID,914.526,VALID,0,VALID,95.6281,VALID,0,VALID,19.2738,VALID,139,VALID,0.40625,
2011-10-25, 01:42:04,VALID,914.529,VALID,0,VALID,95.6434,VALID,0,VALID,19.2738,VALID,139,VALID,1.06875,
2011-10-25, 01:43:04,VALID,914.44,VALID,0,VALID,95.7196,VALID,0,VALID,19.2933,VALID,139,VALID,0.819922,
2011-10-25, 01:44:04,VALID,914.469,VALID,0,VALID,95.7272,VALID,0,VALID,19.2933,VALID,139,VALID,0.716406,
2011-10-25, 01:45:04,VALID,914.487,VALID,0,VALID,95.6434,VALID,0,VALID,19.2738,VALID,139,VALID,0.591797,
2011-10-25, 01:46:04,VALID,914.48,VALID,0,VALID,95.6281,VALID,0,VALID,19.2933,VALID,139,VALID,0.351172,
2011-10-25, 01:47:04,VALID,914.452,VALID,0,VALID,95.5976,VALID,0,VALID,19.2738,VALID,126,VALID,0.541406,
2011-10-25, 01:48:04,VALID,914.492,VALID,0,VALID,95.6129,VALID,0,VALID,19.2738,VALID,121,VALID,0.69375,
2011-10-25, 01:49:04,VALID,914.466,VALID,0,VALID,95.6586,VALID,0,VALID,19.2738,VALID,121,VALID,0.454297,
2011-10-25, 01:50:04,VALID,914.474,VALID,0,VALID,95.651,VALID,0,VALID,19.2528,VALID,125,VALID,0.761328,
2011-10-25, 01:51:04,VALID,914.476,VALID,0,VALID,95.6281,VALID,0,VALID,19.2738,VALID,137,VALID,0.832422,
2011-10-25, 01:52:04,VALID,914.472,VALID,0,VALID,95.5595,VALID,0,VALID,19.2933,VALID,137,VALID,0.521094,
2011-10-25, 01:53:04,VALID,914.482,VALID,0,VALID,95.5367,VALID,0,VALID,19.3128,VALID,137,VALID,0.8875,
2011-10-25, 01:54:04,VALID,914.469,VALID,0,VALID,95.4909,VALID,0,VALID,19.3128,VALID,137,VALID,0.658203,
2011-10-25, 01:55:04,VALID,914.448,VALID,0,VALID,95.4452,VALID,0,VALID,19.3128,VALID,137,VALID,0.860547,
2011-10-25, 01:56:04,VALID,914.455,VALID,0,VALID,95.4223,VALID,0,VALID,19.3323,VALID,137,VALID,0.924219,
2011-10-25, 01:57:04,VALID,914.437,VALID,0,VALID,95.4071,VALID,0,VALID,19.3128,VALID,137,VALID,0.641797,
2011-10-25, 01:58:04,VALID,914.421,VALID,0,VALID,95.4223,VALID,0,VALID,19.3128,VALID,137,VALID,0.721875,
2011-10-25, 01:59:04,VALID,914.412,VALID,0,VALID,95.4757,VALID,0,VALID,19.3128,VALID,137,VALID,1.27344,
2011-10-25, 02:00:04,VALID,914.383,VALID,0,VALID,95.4985,VALID,0,VALID,19.2933,VALID,137,VALID,0.805078,
2011-10-25, 02:01:04,VALID,914.38,VALID,0,VALID,95.4985,VALID,0,VALID,19.2933,VALID,126,VALID,1.13047,
2011-10-25, 02:02:04,VALID,914.372,VALID,0,VALID,95.5671,VALID,0,VALID,19.2738,VALID,121,VALID,1.1375,
2011-10-25, 02:03:04,VALID,914.382,VALID,0,VALID,95.5976,VALID,0,VALID,19.2543,VALID,121,VALID,0.705078,
2011-10-25, 02:04:04,VALID,914.412,VALID,0,VALID,95.6281,VALID,0,VALID,19.2543,VALID,122,VALID,1.10469,
2011-10-25, 02:05:04,VALID,914.377,VALID,0,VALID,95.6434,VALID,0,VALID,19.2543,VALID,127,VALID,1.04961,
2011-10-25, 02:06:04,VALID,914.362,VALID,0,VALID,95.6586,VALID,0,VALID,19.2753,VALID,157,VALID,1.42266,
2011-10-25, 02:07:04,VALID,914.343,VALID,0,VALID,95.6662,VALID,0,VALID,19.2933,VALID,153,VALID,0.434375,
2011-10-25, 02:08:04,VALID,914.337,VALID,0,VALID,95.6357,VALID,0,VALID,19.3128,VALID,153,VALID,0.522656,
2011-10-25, 02:09:04,VALID,914.323,VALID,0,VALID,95.5748,VALID,0,VALID,19.3128,VALID,153,VALID,0.335156,
2011-10-25, 02:10:04,VALID,914.323,VALID,0,VALID,95.529,VALID,0,VALID,19.3128,VALID,153,VALID,0.3,
2011-10-25, 02:11:04,VALID,914.289,VALID,0,VALID,95.5214,VALID,0,VALID,19.3323,VALID,153,VALID,0,
2011-10-25, 02:12:04,VALID,914.272,VALID,0,VALID,95.5062,VALID,0,VALID,19.3323,VALID,153,VALID,0.425,
2011-10-25, 02:13:04,VALID,914.276,VALID,0,VALID,95.6129,VALID,0,VALID,19.3713,VALID,153,VALID,0.984766,
2011-10-25, 02:14:04,VALID,914.241,VALID,0,VALID,95.6129,VALID,0,VALID,19.3323,VALID,153,VALID,0.702344,
2011-10-25, 02:15:04,VALID,914.259,VALID,0,VALID,95.7349,VALID,0,VALID,19.2933,VALID,153,VALID,0.898828,
2011-10-25, 02:16:04,VALID,914.254,VALID,0,VALID,95.8263,VALID,0,VALID,19.2543,VALID,154,VALID,0.776953,
2011-10-25, 02:17:04,VALID,914.264,VALID,0,VALID,95.9331,VALID,0,VALID,19.2153,VALID,262,VALID,1.38164,
2011-10-25, 02:18:04,VALID,914.264,VALID,0,VALID,96.0703,VALID,0,VALID,19.1958,VALID,262,VALID,1.03086,
2011-10-25, 02:19:04,VALID,914.263,VALID,0,VALID,96.2075,VALID,0,VALID,19.1763,VALID,262,VALID,0.312109,
2011-10-25, 02:20:04,VALID,914.272,VALID,0,VALID,96.3142,VALID,0,VALID,19.1763,VALID,262,VALID,0.548047,
2011-10-25, 02:21:04,VALID,914.266,VALID,0,VALID,96.3752,VALID,0,VALID,19.1568,VALID,262,VALID,0.841016,
2011-10-25, 02:22:04,VALID,914.25,VALID,0,VALID,96.4438,VALID,0,VALID,19.1373,VALID,262,VALID,0.399609,
2011-10-25, 02:23:04,VALID,914.25,VALID,0,VALID,96.4972,VALID,0,VALID,19.1388,VALID,262,VALID,0.442187,
2011-10-25, 02:24:04,VALID,914.25,VALID,0,VALID,96.5582,VALID,0,VALID,19.1178,VALID,262,VALID,0.6125,
2011-10-25, 02:25:04,VALID,914.203,VALID,0,VALID,96.6039,VALID,0,VALID,19.1178,VALID,261,VALID,0.284766,
2011-10-25, 02:26:04,VALID,914.225,VALID,0,VALID,96.6268,VALID,0,VALID,19.1178,VALID,180,VALID,1.04141,
2011-10-25, 02:27:04,VALID,914.209,VALID,0,VALID,96.6497,VALID,0,VALID,19.1178,VALID,180,VALID,0.923047,
2011-10-25, 02:28:04,VALID,914.191,VALID,0,VALID,96.6115,VALID,0,VALID,19.1568,VALID,180,VALID,0.565625,
2011-10-25, 02:29:04,VALID,914.217,VALID,0,VALID,96.6039,VALID,0,VALID,19.1763,VALID,180,VALID,0.0257812,
2011-10-25, 02:30:04,VALID,914.191,VALID,0,VALID,96.5658,VALID,0,VALID,19.2153,VALID,180,VALID,0.0546875,
2011-10-25, 02:31:04,VALID,914.248,VALID,0,VALID,96.5582,VALID,0,VALID,19.2153,VALID,180,VALID,0.150391,
2011-10-25, 02:32:04,VALID,914.217,VALID,0,VALID,96.5124,VALID,0,VALID,19.2348,VALID,180,VALID,0.273438,
2011-10-25, 02:33:04,VALID,914.207,VALID,0,VALID,96.4362,VALID,0,VALID,19.2348,VALID,180,VALID,0.101563,
2011-10-25, 02:34:04,VALID,914.214,VALID,0,VALID,96.4133,VALID,0,VALID,19.2543,VALID,180,VALID,0.0195313,
2011-10-25, 02:35:04,VALID,914.196,VALID,0,VALID,96.3524,VALID,0,VALID,19.2543,VALID,179,VALID,0.196875,
2011-10-25, 02:36:04,VALID,914.172,VALID,0,VALID,96.3219,VALID,0,VALID,19.2543,VALID,180,VALID,0.275391,
2011-10-25, 02:37:04,VALID,914.173,VALID,0,VALID,96.2685,VALID,0,VALID,19.2543,VALID,180,VALID,0.219531,
2011-10-25, 02:38:04,VALID,914.146,VALID,0,VALID,96.2533,VALID,0,VALID,19.2543,VALID,180,VALID,0.133984,
2011-10-25, 02:39:04,VALID,914.161,VALID,0,VALID,96.1923,VALID,0,VALID,19.2738,VALID,180,VALID,0.663672,
2011-10-25, 02:40:04,VALID,914.162,VALID,0,VALID,96.1236,VALID,0,VALID,19.2543,VALID,180,VALID,0.933203,
2011-10-25, 02:41:04,VALID,914.112,VALID,0,VALID,96.0932,VALID,0,VALID,19.2543,VALID,180,VALID,0.569531,
2011-10-25, 02:42:04,VALID,914.137,VALID,0,VALID,96.0474,VALID,0,VALID,19.2543,VALID,180,VALID,0.812891,
2011-10-25, 02:43:04,VALID,914.067,VALID,0,VALID,95.9941,VALID,0,VALID,19.2738,VALID,180,VALID,0.616406,
2011-10-25, 02:44:04,VALID,914.059,VALID,0,VALID,95.9331,VALID,0,VALID,19.2738,VALID,180,VALID,0.839844,
2011-10-25, 02:45:04,VALID,914.068,VALID,0,VALID,95.895,VALID,0,VALID,19.2543,VALID,180,VALID,0.716406,
2011-10-25, 02:46:04,VALID,914.036,VALID,0,VALID,95.895,VALID,0,VALID,19.2543,VALID,180,VALID,0.728906,
2011-10-25, 02:47:04,VALID,914.011,VALID,0,VALID,95.8645,VALID,0,VALID,19.2738,VALID,180,VALID,0.850391,
2011-10-25, 02:48:04,VALID,914.04,VALID,0,VALID,95.8492,VALID,0,VALID,19.2738,VALID,180,VALID,0.744531,
2011-10-25, 02:49:04,VALID,913.986,VALID,0,VALID,95.8187,VALID,0,VALID,19.2738,VALID,180,VALID,0.738281,
2011-10-25, 02:50:04,VALID,913.986,VALID,0,VALID,95.8111,VALID,0,VALID,19.2543,VALID,139,VALID,1.02461,
2011-10-25, 02:51:04,VALID,913.962,VALID,0,VALID,95.7577,VALID,0,VALID,19.2738,VALID,152,VALID,0.971875,
2011-10-25, 02:52:04,VALID,913.956,VALID,0,VALID,95.7425,VALID,0,VALID,19.2738,VALID,162,VALID,0.831641,
2011-10-25, 02:53:04,VALID,913.965,VALID,0,VALID,95.7196,VALID,0,VALID,19.2738,VALID,162,VALID,0.791016,
2011-10-25, 02:54:04,VALID,913.926,VALID,0,VALID,95.6739,VALID,0,VALID,19.2933,VALID,162,VALID,1.02539,
2011-10-25, 02:55:04,VALID,913.97,VALID,0,VALID,95.6357,VALID,0,VALID,19.2738,VALID,162,VALID,0.759375,
2011-10-25, 02:56:04,VALID,913.938,VALID,0,VALID,95.6357,VALID,0,VALID,19.2738,VALID,162,VALID,0.776953,
2011-10-25, 02:57:04,VALID,913.948,VALID,0,VALID,95.6205,VALID,0,VALID,19.2933,VALID,162,VALID,0.740234,
2011-10-25, 02:58:04,VALID,913.923,VALID,0,VALID,95.6053,VALID,0,VALID,19.2738,VALID,154,VALID,0.638281,
2011-10-25, 02:59:04,VALID,913.943,VALID,0,VALID,95.6205,VALID,0,VALID,19.2738,VALID,154,VALID,0.824219,
2011-10-25, 03:00:04,VALID,913.926,VALID,0,VALID,95.6205,VALID,0,VALID,19.2528,VALID,144,VALID,0.728516,
2011-10-25, 03:01:04,VALID,913.913,VALID,0,VALID,95.6662,VALID,0,VALID,19.2738,VALID,144,VALID,0.532422,
2011-10-25, 03:02:04,VALID,913.928,VALID,0,VALID,95.6662,VALID,0,VALID,19.2543,VALID,144,VALID,0.578906,
2011-10-25, 03:03:04,VALID,913.966,VALID,0,VALID,95.6739,VALID,0,VALID,19.2543,VALID,144,VALID,0.823047,
2011-10-25, 03:04:04,VALID,913.965,VALID,0,VALID,95.6815,VALID,0,VALID,19.2348,VALID,149,VALID,0.524609,
2011-10-25, 03:05:04,VALID,913.967,VALID,0,VALID,95.7044,VALID,0,VALID,19.2348,VALID,149,VALID,0.345703,
2011-10-25, 03:06:04,VALID,913.956,VALID,0,VALID,95.7501,VALID,0,VALID,19.2348,VALID,149,VALID,0.613672,
2011-10-25, 03:07:04,VALID,913.967,VALID,0,VALID,95.773,VALID,0,VALID,19.2153,VALID,149,VALID,0.491797,
2011-10-25, 03:08:04,VALID,913.975,VALID,0,VALID,95.8035,VALID,0,VALID,19.2153,VALID,149,VALID,0.415234,
2011-10-25, 03:09:04,VALID,913.953,VALID,0,VALID,95.8111,VALID,0,VALID,19.2348,VALID,148,VALID,0.952344,
2011-10-25, 03:10:04,VALID,913.991,VALID,0,VALID,95.7882,VALID,0,VALID,19.2348,VALID,145,VALID,0.683594,
2011-10-25, 03:11:04,VALID,913.967,VALID,0,VALID,95.8187,VALID,0,VALID,19.2543,VALID,147,VALID,0.600391,
2011-10-25, 03:12:04,VALID,914.003,VALID,0,VALID,95.8111,VALID,0,VALID,19.2738,VALID,147,VALID,0.487109,
2011-10-25, 03:13:04,VALID,913.999,VALID,0,VALID,95.7806,VALID,0,VALID,19.2738,VALID,147,VALID,0.482031,
2011-10-25, 03:14:04,VALID,914.018,VALID,0,VALID,95.7654,VALID,0,VALID,19.2738,VALID,147,VALID,0.526953,
2011-10-25, 03:15:04,VALID,913.988,VALID,0,VALID,95.7272,VALID,0,VALID,19.2933,VALID,147,VALID,0.603125,
2011-10-25, 03:16:04,VALID,913.979,VALID,0,VALID,95.712,VALID,0,VALID,19.2723,VALID,147,VALID,0.436719,
2011-10-25, 03:17:04,VALID,913.984,VALID,0,VALID,95.6891,VALID,0,VALID,19.2738,VALID,147,VALID,0.454297,
2011-10-25, 03:18:04,VALID,914.006,VALID,0,VALID,95.6967,VALID,0,VALID,19.2738,VALID,147,VALID,0.653906,
2011-10-25, 03:19:04,VALID,913.978,VALID,0,VALID,95.7425,VALID,0,VALID,19.2334,VALID,147,VALID,0.440625,
2011-10-25, 03:20:04,VALID,913.997,VALID,0,VALID,95.7349,VALID,0,VALID,19.2348,VALID,147,VALID,0.593359,
2011-10-25, 03:21:04,VALID,913.941,VALID,0,VALID,95.773,VALID,0,VALID,19.2348,VALID,129,VALID,1.23359,
2011-10-25, 03:22:04,VALID,913.952,VALID,0,VALID,95.7654,VALID,0,VALID,19.2139,VALID,138,VALID,1.56992,
2011-10-25, 03:23:04,VALID,913.915,VALID,0.2,VALID,95.7349,VALID,0,VALID,19.2334,VALID,127,VALID,0.929688,
2011-10-25, 03:24:04,VALID,913.918,VALID,0,VALID,95.6739,VALID,0,VALID,19.2933,VALID,146,VALID,1.27148,
2011-10-25, 03:25:04,VALID,913.909,VALID,0,VALID,95.5367,VALID,0,VALID,19.3128,VALID,141,VALID,1.21055,
2011-10-25, 03:26:04,VALID,913.889,VALID,0,VALID,95.3994,VALID,0,VALID,19.3518,VALID,135,VALID,1.49961,
2011-10-25, 03:27:04,VALID,913.886,VALID,0,VALID,95.2012,VALID,0,VALID,19.4103,VALID,108,VALID,0.825,
2011-10-25, 03:28:04,VALID,913.892,VALID,0,VALID,94.9268,VALID,0,VALID,19.4493,VALID,126,VALID,0.898438,
2011-10-25, 03:29:04,VALID,913.884,VALID,0,VALID,94.66,VALID,0,VALID,19.4688,VALID,108,VALID,1.11836,
2011-10-25, 03:30:04,VALID,913.856,VALID,0,VALID,94.3855,VALID,0,VALID,19.4883,VALID,121,VALID,1.11328,
2011-10-25, 03:31:04,VALID,913.84,VALID,0,VALID,94.2026,VALID,0,VALID,19.5078,VALID,145,VALID,0.397656,
2011-10-25, 03:32:04,VALID,913.847,VALID,0,VALID,94.0501,VALID,0,VALID,19.5273,VALID,131,VALID,0.945313,
2011-10-25, 03:33:04,VALID,913.833,VALID,0,VALID,93.9205,VALID,0,VALID,19.5273,VALID,138,VALID,0.408984,
2011-10-25, 03:34:04,VALID,913.871,VALID,0,VALID,93.8671,VALID,0,VALID,19.5078,VALID,143,VALID,0.777344,
2011-10-25, 03:35:04,VALID,913.884,VALID,0,VALID,93.8671,VALID,0,VALID,19.5078,VALID,121,VALID,0.964844,
2011-10-25, 03:36:04,VALID,913.843,VALID,0,VALID,93.8214,VALID,0,VALID,19.5078,VALID,122,VALID,1.25586,
2011-10-25, 03:37:04,VALID,913.874,VALID,0,VALID,93.7604,VALID,0,VALID,19.5078,VALID,122,VALID,0.926172,
2011-10-25, 03:38:04,VALID,913.843,VALID,0,VALID,93.7223,VALID,0,VALID,19.5273,VALID,122,VALID,1.04805,
2011-10-25, 03:39:04,VALID,913.83,VALID,0,VALID,93.6689,VALID,0,VALID,19.5273,VALID,122,VALID,0.941797,
2011-10-25, 03:40:04,VALID,913.85,VALID,0,VALID,93.6537,VALID,0,VALID,19.5078,VALID,122,VALID,0.638281,
2011-10-25, 03:41:04,VALID,913.842,VALID,0,VALID,93.6079,VALID,0,VALID,19.5078,VALID,131,VALID,1.33906,
2011-10-25, 03:42:04,VALID,913.841,VALID,0,VALID,93.6003,VALID,0,VALID,19.5273,VALID,148,VALID,0.672266,
2011-10-25, 03:43:04,VALID,913.843,VALID,0,VALID,93.4783,VALID,0,VALID,19.5273,VALID,143,VALID,0.916797,
2011-10-25, 03:44:04,VALID,913.804,VALID,0,VALID,93.4478,VALID,0,VALID,19.5468,VALID,135,VALID,1.16797,